Louisville Bowman, KY

5:33 PM EDT on April 25, 2017 (GMT -0400)
Bowman

Weather History for KLOU - January, 2005

Change the Weather History Date:

Monday, January 3, 2005

  Actual Average Record
Temperature  
Mean Temperature 60 °F 35 °F  
Max Temperature 62 °F 43 °F 71 °F (1997)
Min Temperature 57 °F 27 °F 5 °F (1979)
Degree Days  
Heating Degree Days 6 30  
Month to date heating degree days 90  
Since 1 July heating degree days 1754  
Cooling Degree Days 0 0  
Month to date cooling degree days 0  
Year to date cooling degree days 0  
Growing Degree Days 10 (Base 50)    
Moisture  
Dew Point 57 °F    
Average Humidity 92    
Maximum Humidity 100    
Minimum Humidity 78    
Precipitation  
Precipitation 1.05 in 0.12 in 1.53 in (1951)
Month to date precipitation 0.39  
Year to date precipitation 0.39  
Sea Level Pressure  
Sea Level Pressure 30.23 in    
Wind  
Wind Speed 7 mph (SSW)    
Max Wind Speed 13 mph    
Max Gust Speed 23 mph    
Visibility 5 miles    
Events Rain    
T = Trace of Precipitation, MM = Missing Value Source: NWS Daily Summary

Daily Weather History Graph

Daily Weather History Graph

Search for Another Location

Airport or City:

Trip Planner

Search our weather history database for the weather conditions in past years. The results will help you decide how hot, cold, wet, or windy it might be!

Date:

Astronomy

Jan. 03, 2005 Rise Set
Actual Time 7:59 AM EST 5:35 PM EST
Civil Twilight 7:30 AM EST 6:04 PM EST
Nautical Twilight 6:57 AM EST 6:37 PM EST
Astronomical Twilight 6:25 AM EST 7:09 PM EST
Moon 12:22 AM EST (1/3) 12:25 PM EST (1/3)
Length of Visible Light 10h 34m
Length of Day
9h 35m
Waning Gibbous, 50% of the Moon is Illuminated
Jan 3
Waning Gibbous
Jan 3
Last Quarter
Jan 10
New
Jan 17
First Quarter
Jan 25
Full

Hourly Weather History & Observations

Time (EST) Temp. Dew Point Humidity Pressure Visibility Wind Dir Wind Speed Gust Speed Precip Events Conditions
1:31 AM 60.8 °F 59.0 °F 94% 30.30 in 2.5 mi South 5.8 mph - 0.01 in Rain Light Rain
1:38 AM 60.8 °F 59.0 °F 94% 30.30 in 3.0 mi South 5.8 mph - 0.01 in Rain Light Rain
1:53 AM 60.1 °F 59.0 °F 96% 30.30 in 4.0 mi South 4.6 mph - 0.01 in   Overcast
1:58 AM 60.8 °F 59.0 °F 94% 30.30 in 4.0 mi Variable 5.8 mph - N/A   Overcast
2:39 AM 60.8 °F 59.0 °F 94% 30.29 in 4.0 mi South 6.9 mph - 0.01 in Rain Light Rain
3:00 AM 60.8 °F 59.0 °F 94% 30.29 in 6.0 mi South 5.8 mph - 0.00 in   Overcast
3:53 AM 60.1 °F 57.9 °F 93% 30.29 in 4.0 mi SSW 6.9 mph - 0.03 in Rain Rain
4:04 AM 60.8 °F 57.2 °F 88% 30.29 in 2.5 mi SSW 3.5 mph - 0.05 in Rain Heavy Rain
4:18 AM 59.0 °F 57.2 °F 94% 30.28 in 4.0 mi South 8.1 mph - 0.09 in Rain Rain
4:53 AM 59.0 °F 57.9 °F 96% 30.27 in 5.0 mi South 4.6 mph - 0.20 in Rain Light Rain
5:29 AM 59.0 °F 57.2 °F 94% 30.27 in 2.5 mi South 3.5 mph - 0.12 in Rain Heavy Rain
5:53 AM 57.9 °F 57.9 °F 100% 30.27 in 4.0 mi Calm Calm - 0.19 in Rain Rain
6:53 AM 57.9 °F 57.0 °F 97% 30.26 in 2.5 mi Calm Calm - 0.19 in Rain Rain
7:39 AM 57.2 °F 57.2 °F 100% 30.25 in 2.5 mi SE 4.6 mph - 0.18 in Rain Rain
7:53 AM 57.9 °F 57.0 °F 97% 30.25 in 2.0 mi SE 3.5 mph - 0.19 in Rain Light Rain
8:25 AM 57.2 °F 57.2 °F 100% 30.24 in 6.0 mi SSE 6.9 mph - 0.04 in Rain Light Rain
8:53 AM 57.9 °F 57.0 °F 97% 30.24 in 4.0 mi SSE 5.8 mph - 0.08 in Rain Light Rain
9:20 AM 57.2 °F 55.4 °F 94% 30.25 in 2.5 mi SSW 5.8 mph - 0.03 in Rain Rain
9:29 AM 57.2 °F 55.4 °F 94% 30.25 in 1.0 mi SSW 6.9 mph - 0.13 in Rain Heavy Rain
10:03 AM 59.0 °F 57.2 °F 94% 30.25 in 4.0 mi SSW 11.5 mph 19.6 mph 0.01 in Rain Light Rain
10:15 AM 59.0 °F 57.2 °F 94% 30.25 in 1.8 mi SSW 11.5 mph 18.4 mph 0.04 in Rain Heavy Rain
10:25 AM 59.0 °F 57.2 °F 94% 30.25 in 3.0 mi SSW 11.5 mph - 0.05 in Rain Light Rain
10:53 AM 59.0 °F 57.0 °F 93% 30.25 in 9.0 mi SW 9.2 mph - 0.06 in Rain Light Rain
11:53 AM 59.0 °F 57.0 °F 93% 30.23 in 4.0 mi SSW 10.4 mph - 0.01 in Rain Light Rain
11:59 AM 59.0 °F 57.2 °F 94% 30.23 in 2.5 mi SW 10.4 mph - 0.00 in Rain Light Rain
12:22 PM 59.0 °F 57.2 °F 94% 30.22 in 8.0 mi SW 9.2 mph - 0.02 in Rain Light Rain
1:53 PM 60.1 °F 57.9 °F 93% 30.18 in 2.5 mi SW 9.2 mph - 0.05 in Rain Rain
1:58 PM 60.8 °F 57.2 °F 88% 30.18 in 2.0 mi SSW 10.4 mph - 0.01 in Rain Rain
2:03 PM 60.8 °F 57.2 °F 88% 30.18 in 3.0 mi SSW 6.9 mph - 0.01 in Rain Light Rain
2:30 PM 60.8 °F 57.2 °F 88% 30.17 in 9.0 mi SSW 9.2 mph - 0.02 in Rain Light Rain
2:53 PM 60.1 °F 57.0 °F 90% 30.15 in 10.0 mi SSW 11.5 mph - 0.03 in Rain Light Rain
3:53 PM 60.1 °F 57.0 °F 90% 30.14 in 10.0 mi SSW 9.2 mph - 0.00 in Rain Light Rain
4:53 PM 60.1 °F 57.0 °F 90% 30.14 in 10.0 mi South 8.1 mph - 0.01 in Rain Light Rain
5:53 PM 61.0 °F 55.9 °F 83% 30.15 in 9.0 mi SSW 6.9 mph - 0.00 in Rain Light Rain
6:53 PM 61.0 °F 55.9 °F 83% 30.15 in 10.0 mi SSW 11.5 mph - 0.00 in   Overcast
7:53 PM 62.1 °F 55.0 °F 78% 30.16 in 10.0 mi SSW 11.5 mph 23.0 mph N/A   Overcast
8:53 PM 62.1 °F 55.9 °F 80% 30.16 in 10.0 mi SSW 12.7 mph 18.4 mph N/A   Overcast
9:53 PM 61.0 °F 55.9 °F 83% 30.17 in 10.0 mi SSW 6.9 mph - N/A   Overcast
10:53 PM 62.1 °F 55.9 °F 80% 30.18 in 10.0 mi Variable 6.9 mph - N/A   Overcast
11:53 PM 61.0 °F 57.0 °F 87% 30.18 in 10.0 mi WSW 10.4 mph - 0.00 in   Overcast